Location: Chrząstowo
(52.0654°N, 17.1290°E)
Time: 04:37:54
(UTC+01:00)

ISS - Pass Details

Date: 01 February 2019
Orbit: 403 x 411 km, 51.6° (Epoch: 20 February)

Event Time Altitude Azimuth Distance (km) Brightness Sun altitude
Rises 18:55:37 0° 277° (W) 2,339 1.5 -21.1°
Reaches altitude 10° 18:57:42 10° 276° (W) 1,478 0.2 -21.4°
Enters shadow 19:00:32 59° 249° (WSW) 481 -3.3 -21.8°
